Location: Unspecified
(41.5000°N, 0.0000°E)
Time: 15:26:29
(UTC+00:00)

Vanguard 2 - Pass Details

Date: 23 June 2019
Orbit: 553 x 2938 km, 32.9° (Epoch: 15 July)

Event Time Altitude Azimuth Distance (km) Brightness Sun altitude
Rises 14:32:22 0° 266° (W) 4,907 12.2 53.9°
Reaches altitude 10° 14:36:39 10° 249° (WSW) 4,324 12.2 53.2°
Maximum altitude 14:44:16 19° 211° (SSW) 4,237 12.0 51.8°
Drops below altitude 10° 14:53:41 10° 174° (S) 5,477 12.1 50.1°
Sets 15:00:23 0° 160° (SSE) 6,711 12.3 48.9°
